Station Historical Data
Daily Summary for January 17, 2017 Units:  English    Metric   Both
« Previous Day
Next Day »
Daily Weekly Monthly Yearly Custom
  High: Low: Average:
Temperature: 45.6 °F 32.4 °F 39.1 °F
Dew Point: 44.3 °F 27.4 °F 36.9 °F
Humidity: 96% 81% 92%
Wind Speed: 13.0mph 0.0mph 3.2mph
Wind Gust: 20.0mph - -
Wind- - SE
Pressure: 30.25 in 29.77 in -
Precipitation: 0.00 in    
Historical Graphs
 
 
Tabular Data for January 17, 2017
Time Temperature Dew Point Pressure Wind Wind Speed Wind Gust Humidity Rainfall Rate (Hourly)
00:04 33.0 °F 28.1 °F 30.25 in Calm     82% 0.00 in
00:09 32.8 °F 27.9 °F 30.24 in Calm     82% 0.00 in
00:14 32.7 °F 27.8 °F 30.23 in East 2.0 mph 2.0 mph 82% 0.00 in
00:19 32.7 °F 28.1 °F 30.23 in East 1.0 mph 3.0 mph 83% 0.01 in
00:24 32.7 °F 27.8 °F 30.23 in ENE 2.0 mph 4.0 mph 82% 0.01 in
00:29 32.6 °F 28.0 °F 30.23 in NE 2.0 mph 4.0 mph 83% 0.01 in
00:39 32.5 °F 27.9 °F 30.23 in NE 1.0 mph 3.0 mph 83% 0.01 in
00:44 32.4 °F 27.8 °F 30.22 in NE 1.0 mph 3.0 mph 83% 0.01 in
00:49 32.4 °F 27.8 °F 30.22 in NE 2.0 mph 3.0 mph 83% 0.01 in
00:54 32.5 °F 27.6 °F 30.22 in NE 3.0 mph 4.0 mph 82% 0.01 in
00:59 32.6 °F 27.7 °F 30.22 in Calm   4.0 mph 82% 0.01 in
01:04 32.6 °F 27.4 °F 30.22 in NE 2.0 mph 3.0 mph 81% 0.01 in
01:09 32.7 °F 27.8 °F 30.22 in NE 2.0 mph 3.0 mph 82% 0.01 in
01:14 32.7 °F 28.1 °F 30.22 in Calm   2.0 mph 83% 0.01 in
01:19 32.7 °F 27.8 °F 30.21 in NE 2.0 mph 2.0 mph 82% 0.00 in
01:24 32.7 °F 27.8 °F 30.20 in NE 1.0 mph 3.0 mph 82% 0.00 in
01:29 32.7 °F 27.8 °F 30.20 in NE 2.0 mph 3.0 mph 82% 0.00 in
01:34 32.7 °F 27.8 °F 30.20 in NE 2.0 mph 4.0 mph 82% 0.00 in
01:39 32.7 °F 28.1 °F 30.20 in NE 2.0 mph 4.0 mph 83% 0.00 in
01:44 32.8 °F 28.2 °F 30.20 in Calm   3.0 mph 83% 0.00 in
01:49 32.8 °F 28.2 °F 30.20 in NE 2.0 mph 2.0 mph 83% 0.00 in
01:54 32.8 °F 28.2 °F 30.20 in NE 1.0 mph 3.0 mph 83% 0.00 in
01:59 32.9 °F 28.3 °F 30.20 in Calm   2.0 mph 83% 0.00 in
02:04 33.0 °F 28.4 °F 30.20 in NE 1.0 mph 2.0 mph 83% 0.00 in
02:09 33.1 °F 28.5 °F 30.21 in Calm   1.0 mph 83% 0.00 in
02:14 33.1 °F 28.5 °F 30.21 in Calm     83% 0.00 in
02:19 33.2 °F 28.9 °F 30.21 in Calm     84% 0.00 in
02:24 33.2 °F 28.9 °F 30.21 in Calm     84% 0.00 in
02:29 33.2 °F 28.9 °F 30.20 in Calm   2.0 mph 84% 0.00 in
02:34 33.2 °F 29.2 °F 30.20 in NE 1.0 mph 2.0 mph 85% 0.00 in
02:39 33.2 °F 29.2 °F 30.20 in NE 1.0 mph 2.0 mph 85% 0.00 in
02:44 33.3 °F 29.6 °F 30.20 in NE 2.0 mph 2.0 mph 86% 0.00 in
02:49 33.3 °F 29.6 °F 30.19 in NE 1.0 mph 3.0 mph 86% 0.01 in
02:54 33.3 °F 29.8 °F 30.19 in NE 1.0 mph 3.0 mph 87% 0.01 in
02:59 33.4 °F 29.9 °F 30.19 in NE 1.0 mph 5.0 mph 87% 0.01 in
03:04 33.5 °F 30.0 °F 30.18 in NE 1.0 mph 5.0 mph 87% 0.01 in
03:09 33.5 °F 30.3 °F 30.18 in ENE 2.0 mph 5.0 mph 88% 0.01 in
03:14 33.6 °F 30.4 °F 30.18 in ENE 2.0 mph 4.0 mph 88% 0.01 in
03:19 33.6 °F 30.4 °F 30.17 in NNE 1.0 mph 4.0 mph 88% 0.01 in
03:24 33.6 °F 30.4 °F 30.17 in NE 1.0 mph 3.0 mph 88% 0.02 in
03:29 33.7 °F 30.5 °F 30.17 in NE 1.0 mph 3.0 mph 88% 0.02 in
03:34 33.9 °F 30.7 °F 30.17 in ENE 1.0 mph 3.0 mph 88% 0.02 in
03:39 34.0 °F 30.8 °F 30.17 in ENE 1.0 mph 2.0 mph 88% 0.02 in
03:44 34.1 °F 30.6 °F 30.17 in East 1.0 mph 3.0 mph 87% 0.02 in
03:49 34.2 °F 30.7 °F 30.16 in ENE 1.0 mph 3.0 mph 87% 0.01 in
03:54 34.3 °F 31.1 °F 30.16 in Calm   5.0 mph 88% 0.01 in
03:59 34.4 °F 30.9 °F 30.15 in East 2.0 mph 6.0 mph 87% 0.01 in
04:04 34.5 °F 31.0 °F 30.15 in East 2.0 mph 6.0 mph 87% 0.02 in
04:09 34.7 °F 31.2 °F 30.15 in East 3.0 mph 6.0 mph 87% 0.02 in
04:14 34.7 °F 31.2 °F 30.15 in East 1.0 mph 6.0 mph 87% 0.02 in
04:19 34.9 °F 31.4 °F 30.15 in ENE 3.0 mph 7.0 mph 87% 0.02 in
04:24 35.0 °F 31.5 °F 30.15 in East 2.0 mph 5.0 mph 87% 0.01 in
04:29 35.1 °F 31.6 °F 30.14 in East 2.0 mph 5.0 mph 87% 0.01 in
04:34 35.1 °F 31.6 °F 30.14 in ENE 2.0 mph 5.0 mph 87% 0.01 in
04:39 35.0 °F 31.5 °F 30.14 in ENE 1.0 mph 5.0 mph 87% 0.01 in
04:44 35.0 °F 31.8 °F 30.14 in ENE 3.0 mph 4.0 mph 88% 0.01 in
04:49 35.1 °F 31.9 °F 30.14 in ENE 1.0 mph 4.0 mph 88% 0.01 in
04:54 35.2 °F 32.0 °F 30.14 in ENE 2.0 mph 5.0 mph 88% 0.01 in
04:59 35.2 °F 31.7 °F 30.13 in ENE 2.0 mph 5.0 mph 87% 0.01 in
05:04 35.3 °F 31.8 °F 30.13 in ENE 2.0 mph 5.0 mph 87% 0.00 in
05:09 35.4 °F 31.9 °F 30.13 in ENE 1.0 mph 5.0 mph 87% 0.00 in
05:14 35.5 °F 32.0 °F 30.13 in ENE 2.0 mph 7.0 mph 87% 0.00 in
05:19 35.5 °F 32.0 °F 30.12 in ESE 3.0 mph 5.0 mph 87% 0.00 in
05:24 35.5 °F 32.0 °F 30.12 in NE 2.0 mph 7.0 mph 87% 0.00 in
05:29 35.5 °F 32.0 °F 30.12 in NE 3.0 mph 5.0 mph 87% 0.00 in
05:34 35.6 °F 32.1 °F 30.12 in ENE 4.0 mph 6.0 mph 87% 0.00 in
05:39 35.7 °F 32.2 °F 30.12 in NE 3.0 mph 5.0 mph 87% 0.00 in
05:44 35.8 °F 32.3 °F 30.11 in NE 3.0 mph 5.0 mph 87% 0.00 in
05:49 36.0 °F 32.5 °F 30.11 in ENE 3.0 mph 8.0 mph 87% 0.00 in
05:54 36.1 °F 32.6 °F 30.10 in NE 2.0 mph 7.0 mph 87% 0.00 in
05:59 36.1 °F 32.6 °F 30.10 in ENE 3.0 mph 7.0 mph 87% 0.00 in
06:04 36.2 °F 32.7 °F 30.09 in NE 7.0 mph 7.0 mph 87% 0.00 in
06:09 36.2 °F 32.7 °F 30.09 in ENE 4.0 mph 9.0 mph 87% 0.00 in
06:14 36.2 °F 32.7 °F 30.09 in SE 3.0 mph 6.0 mph 87% 0.01 in
06:19 36.1 °F 32.6 °F 30.09 in ENE 2.0 mph 7.0 mph 87% 0.01 in
06:24 36.1 °F 32.6 °F 30.08 in ENE 3.0 mph 8.0 mph 87% 0.01 in
06:29 36.1 °F 32.6 °F 30.08 in East 3.0 mph 9.0 mph 87% 0.01 in
06:34 36.1 °F 32.6 °F 30.08 in East 4.0 mph 9.0 mph 87% 0.01 in
06:39 36.1 °F 32.6 °F 30.07 in East 4.0 mph 9.0 mph 87% 0.01 in
06:44 36.1 °F 32.6 °F 30.07 in NE 2.0 mph 9.0 mph 87% 0.01 in
06:49 36.1 °F 32.6 °F 30.07 in NE 3.0 mph 8.0 mph 87% 0.01 in
06:54 36.1 °F 32.6 °F 30.07 in ENE 5.0 mph 8.0 mph 87% 0.01 in
06:59 36.2 °F 32.7 °F 30.06 in ENE 4.0 mph 9.0 mph 87% 0.01 in
07:04 36.2 °F 32.7 °F 30.05 in ENE 4.0 mph 10.0 mph 87% 0.01 in
07:09 36.2 °F 32.7 °F 30.05 in ENE 4.0 mph 10.0 mph 87% 0.01 in
07:14 36.2 °F 32.7 °F 30.04 in ENE 4.0 mph 9.0 mph 87% 0.01 in
07:19 36.2 °F 32.7 °F 30.04 in ENE 2.0 mph 8.0 mph 87% 0.01 in
07:24 36.2 °F 32.7 °F 30.03 in NE 4.0 mph 10.0 mph 87% 0.01 in
07:29 36.2 °F 32.7 °F 30.03 in ENE 5.0 mph 11.0 mph 87% 0.01 in
07:34 36.2 °F 33.0 °F 30.02 in ENE 5.0 mph 11.0 mph 88% 0.01 in
07:39 36.3 °F 33.1 °F 30.02 in ENE 5.0 mph 14.0 mph 88% 0.01 in
07:44 36.4 °F 33.2 °F 30.02 in ENE 4.0 mph 12.0 mph 88% 0.01 in
07:49 36.4 °F 33.2 °F 30.02 in ENE 3.0 mph 9.0 mph 88% 0.01 in
07:54 36.4 °F 33.2 °F 30.02 in East 7.0 mph 8.0 mph 88% 0.01 in
07:59 36.4 °F 33.2 °F 30.02 in ENE 4.0 mph 10.0 mph 88% 0.02 in
08:04 36.4 °F 33.2 °F 30.02 in ENE 4.0 mph 10.0 mph 88% 0.02 in
08:09 36.4 °F 33.2 °F 30.02 in ENE 3.0 mph 9.0 mph 88% 0.02 in
08:14 36.5 °F 33.3 °F 30.01 in East 5.0 mph 8.0 mph 88% 0.01 in
08:19 36.4 °F 33.2 °F 30.01 in East 7.0 mph 8.0 mph 88% 0.01 in
08:24 36.5 °F 33.3 °F 30.01 in East 2.0 mph 9.0 mph 88% 0.01 in
08:29 36.5 °F 33.6 °F 30.00 in East 5.0 mph 11.0 mph 89% 0.01 in
08:34 36.6 °F 33.7 °F 30.00 in East 4.0 mph 11.0 mph 89% 0.01 in
08:39 36.6 °F 33.7 °F 30.00 in East 3.0 mph 9.0 mph 89% 0.01 in
08:44 36.7 °F 33.8 °F 30.00 in East 3.0 mph 9.0 mph 89% 0.01 in
08:49 36.8 °F 33.9 °F 30.00 in ENE 4.0 mph 9.0 mph 89% 0.01 in
08:54 36.8 °F 33.9 °F 29.99 in ENE 4.0 mph 11.0 mph 89% 0.01 in
08:59 36.8 °F 34.1 °F 29.99 in NE 4.0 mph 7.0 mph 90% 0.00 in
09:04 36.8 °F 34.1 °F 29.99 in ENE 3.0 mph 8.0 mph 90% 0.01 in
09:09 36.9 °F 34.2 °F 29.98 in ENE 4.0 mph 10.0 mph 90% 0.01 in
09:14 37.0 °F 34.6 °F 29.98 in East 4.0 mph 10.0 mph 91% 0.01 in
09:19 37.1 °F 34.7 °F 29.97 in ESE 4.0 mph 7.0 mph 91% 0.01 in
09:24 37.3 °F 34.9 °F 29.97 in East 5.0 mph 8.0 mph 91% 0.02 in
09:29 37.5 °F 35.4 °F 29.97 in East 3.0 mph 5.0 mph 92% 0.02 in
09:34 37.7 °F 35.6 °F 29.96 in East 2.0 mph 7.0 mph 92% 0.02 in
09:39 37.8 °F 35.7 °F 29.95 in ENE 3.0 mph 8.0 mph 92% 0.03 in
09:44 37.9 °F 35.8 °F 29.94 in ENE 3.0 mph 8.0 mph 92% 0.05 in
09:49 38.0 °F 35.9 °F 29.94 in Calm   9.0 mph 92% 0.06 in
09:54 38.2 °F 36.4 °F 29.94 in ENE 3.0 mph 7.0 mph 93% 0.07 in
09:59 38.4 °F 36.6 °F 29.93 in East 6.0 mph 8.0 mph 93% 0.07 in
10:04 38.5 °F 36.7 °F 29.93 in ESE 7.0 mph 7.0 mph 93% 0.08 in
10:09 38.7 °F 36.9 °F 29.93 in East 3.0 mph 7.0 mph 93% 0.08 in
10:14 38.8 °F 36.9 °F 29.92 in East 3.0 mph 7.0 mph 93% 0.10 in
10:19 39.0 °F 37.1 °F 29.93 in East 3.0 mph 7.0 mph 93% 0.11 in
10:24 39.1 °F 37.2 °F 29.93 in East 2.0 mph 7.0 mph 93% 0.12 in
10:29 39.3 °F 37.4 °F 29.93 in ENE 2.0 mph 4.0 mph 93% 0.15 in
10:34 39.3 °F 37.7 °F 29.92 in ENE 3.0 mph 6.0 mph 94% 0.16 in
10:39 39.3 °F 37.7 °F 29.92 in ENE 3.0 mph 5.0 mph 94% 0.16 in
10:44 39.4 °F 37.8 °F 29.91 in ENE 2.0 mph 6.0 mph 94% 0.16 in
10:49 39.5 °F 37.9 °F 29.90 in East 5.0 mph 8.0 mph 94% 0.15 in
10:54 39.5 °F 37.9 °F 29.89 in ESE 7.0 mph 10.0 mph 94% 0.16 in
10:59 39.7 °F 38.1 °F 29.89 in ESE 5.0 mph 8.0 mph 94% 0.16 in
11:04 40.2 °F 38.6 °F 29.89 in ENE 2.0 mph 8.0 mph 94% 0.15 in
11:09 40.6 °F 39.0 °F 29.89 in East 5.0 mph 6.0 mph 94% 0.15 in
11:14 40.9 °F 39.3 °F 29.89 in ENE 3.0 mph 6.0 mph 94% 0.13 in
11:19 41.1 °F 39.5 °F 29.88 in ENE 2.0 mph 6.0 mph 94% 0.12 in
11:24 41.3 °F 39.7 °F 29.88 in ENE 2.0 mph 6.0 mph 94% 0.10 in
11:29 41.6 °F 40.0 °F 29.88 in ENE 2.0 mph 6.0 mph 94% 0.07 in
11:34 41.7 °F 40.1 °F 29.87 in ENE 3.0 mph 6.0 mph 94% 0.06 in
11:39 41.7 °F 40.1 °F 29.87 in NE 2.0 mph 4.0 mph 94% 0.05 in
11:44 41.7 °F 40.1 °F 29.87 in ENE 3.0 mph 6.0 mph 94% 0.03 in
11:49 41.8 °F 40.2 °F 29.87 in Calm   5.0 mph 94% 0.03 in
11:54 41.7 °F 40.1 °F 29.87 in ENE 2.0 mph 3.0 mph 94% 0.02 in
11:59 41.5 °F 39.6 °F 29.87 in NE 1.0 mph 4.0 mph 93% 0.02 in
12:04 41.3 °F 39.7 °F 29.86 in ENE 3.0 mph 4.0 mph 94% 0.01 in
12:09 41.4 °F 39.8 °F 29.86 in ENE 2.0 mph 4.0 mph 94% 0.03 in
12:14 41.4 °F 39.8 °F 29.86 in ENE 2.0 mph 4.0 mph 94% 0.03 in
12:19 41.4 °F 39.8 °F 29.86 in ENE 1.0 mph 3.0 mph 94% 0.07 in
12:24 41.5 °F 39.9 °F 29.86 in ENE 2.0 mph 4.0 mph 94% 0.11 in
12:29 41.5 °F 39.9 °F 29.85 in NE 2.0 mph 5.0 mph 94% 0.13 in
12:34 41.6 °F 40.0 °F 29.85 in NE 2.0 mph 5.0 mph 94% 0.15 in
12:39 41.6 °F 40.0 °F 29.85 in ENE 1.0 mph 4.0 mph 94% 0.17 in
12:44 41.7 °F 40.1 °F 29.84 in East 1.0 mph 5.0 mph 94% 0.19 in
12:49 41.8 °F 40.2 °F 29.84 in ENE 1.0 mph 6.0 mph 94% 0.20 in
12:54 42.1 °F 40.8 °F 29.83 in ESE 2.0 mph 3.0 mph 95% 0.19 in
12:59 42.5 °F 41.2 °F 29.83 in ENE 3.0 mph 5.0 mph 95% 0.19 in
13:04 42.6 °F 41.3 °F 29.83 in ENE 2.0 mph 5.0 mph 95% 0.19 in
13:09 42.7 °F 41.4 °F 29.82 in NE 2.0 mph 3.0 mph 95% 0.17 in
13:14 42.8 °F 41.5 °F 29.82 in Calm   3.0 mph 95% 0.18 in
13:19 43.1 °F 41.8 °F 29.82 in NE 2.0 mph 3.0 mph 95% 0.15 in
13:24 43.3 °F 42.0 °F 29.81 in ENE 1.0 mph 3.0 mph 95% 0.13 in
13:29 43.6 °F 42.3 °F 29.81 in ENE 1.0 mph 3.0 mph 95% 0.12 in
13:34 43.7 °F 42.4 °F 29.80 in Calm   2.0 mph 95% 0.11 in
13:39 43.9 °F 42.6 °F 29.80 in Calm   2.0 mph 95% 0.09 in
13:44 44.3 °F 43.0 °F 29.80 in Calm     95% 0.07 in
13:49 44.5 °F 43.2 °F 29.80 in Calm     95% 0.06 in
13:54 44.8 °F 43.5 °F 29.79 in Calm     95% 0.07 in
13:59 44.9 °F 43.6 °F 29.79 in Calm     95% 0.07 in
14:04 45.0 °F 43.7 °F 29.79 in Calm     95% 0.08 in
14:09 45.1 °F 43.8 °F 29.79 in Calm     95% 0.09 in
14:14 45.2 °F 43.9 °F 29.79 in Calm     95% 0.09 in
14:19 45.2 °F 43.9 °F 29.78 in Calm     95% 0.09 in
14:24 45.3 °F 44.0 °F 29.78 in Calm     95% 0.08 in
14:29 45.5 °F 44.2 °F 29.78 in Calm     95% 0.07 in
14:34 45.5 °F 44.2 °F 29.78 in Calm     95% 0.07 in
14:39 45.3 °F 44.0 °F 29.77 in Calm     95% 0.07 in
14:44 45.4 °F 44.1 °F 29.77 in Calm     95% 0.07 in
14:49 45.4 °F 44.1 °F 29.77 in NE 3.0 mph 6.0 mph 95% 0.08 in
14:54 45.5 °F 44.2 °F 29.77 in ENE 2.0 mph 6.0 mph 95% 0.08 in
14:59 45.5 °F 44.2 °F 29.77 in NE 2.0 mph 3.0 mph 95% 0.08 in
15:04 45.6 °F 44.3 °F 29.78 in NE 1.0 mph 3.0 mph 95% 0.07 in
15:09 45.4 °F 44.1 °F 29.78 in NE 2.0 mph 2.0 mph 95% 0.06 in
15:14 44.8 °F 43.5 °F 29.78 in NE 2.0 mph 2.0 mph 95% 0.05 in
15:19 44.5 °F 43.2 °F 29.78 in NE 1.0 mph 3.0 mph 95% 0.04 in
15:24 44.3 °F 43.0 °F 29.78 in NE 1.0 mph 3.0 mph 95% 0.03 in
15:29 43.5 °F 42.2 °F 29.78 in Calm   2.0 mph 95% 0.03 in
15:34 43.1 °F 41.8 °F 29.78 in North 1.0 mph 4.0 mph 95% 0.02 in
15:39 42.6 °F 41.0 °F 29.78 in North 2.0 mph 7.0 mph 94% 0.02 in
15:44 42.2 °F 40.9 °F 29.78 in NNW 3.0 mph 10.0 mph 95% 0.02 in
15:49 42.2 °F 40.9 °F 29.78 in North 1.0 mph 3.0 mph 95% 0.01 in
15:54 42.2 °F 40.9 °F 29.78 in Calm   2.0 mph 95% 0.00 in
15:59 42.3 °F 41.0 °F 29.78 in Calm   2.0 mph 95% 0.00 in
16:04 42.3 °F 41.0 °F 29.78 in Calm     95% 0.00 in
16:09 42.2 °F 40.9 °F 29.78 in Calm     95% 0.00 in
16:14 42.1 °F 40.8 °F 29.78 in Calm     95% 0.00 in
16:19 42.1 °F 40.8 °F 29.78 in Calm   2.0 mph 95% 0.00 in
16:24 42.1 °F 40.8 °F 29.78 in Calm     95% 0.00 in
16:29 42.0 °F 40.7 °F 29.78 in Calm     95% 0.00 in
16:34 41.8 °F 40.5 °F 29.78 in Calm     95% 0.00 in
16:39 41.6 °F 40.3 °F 29.79 in Calm     95% 0.00 in
16:44 41.4 °F 40.1 °F 29.79 in Calm     95% 0.00 in
16:49 41.4 °F 40.1 °F 29.79 in Calm     95% 0.00 in
16:54 41.3 °F 40.0 °F 29.79 in Calm     95% 0.00 in
16:59 41.3 °F 40.0 °F 29.79 in Calm     95% 0.00 in
17:04 41.3 °F 40.0 °F 29.79 in Calm     95% 0.01 in
17:09 41.4 °F 40.1 °F 29.79 in Calm     95% 0.01 in
17:14 41.5 °F 40.2 °F 29.80 in Calm     95% 0.01 in
17:19 41.5 °F 40.2 °F 29.80 in Calm     95% 0.01 in
17:24 42.0 °F 40.7 °F 29.80 in SW 1.0 mph 3.0 mph 95% 0.01 in
17:29 43.1 °F 42.0 °F 29.80 in SSW 2.0 mph 4.0 mph 96% 0.01 in
17:34 44.1 °F 43.0 °F 29.80 in SW 2.0 mph 6.0 mph 96% 0.01 in
17:39 44.8 °F 43.7 °F 29.80 in South 5.0 mph 6.0 mph 96% 0.01 in
17:44 44.9 °F 43.8 °F 29.80 in SW 4.0 mph 6.0 mph 96% 0.01 in
17:49 44.9 °F 43.8 °F 29.80 in WSW 5.0 mph 8.0 mph 96% 0.01 in
17:54 44.9 °F 43.8 °F 29.80 in SW 8.0 mph 8.0 mph 96% 0.01 in
17:59 44.8 °F 43.7 °F 29.80 in SW 5.0 mph 8.0 mph 96% 0.01 in
18:04 44.8 °F 43.7 °F 29.80 in SW 4.0 mph 8.0 mph 96% 0.00 in
18:09 44.7 °F 43.6 °F 29.80 in SW 4.0 mph 7.0 mph 96% 0.00 in
18:14 44.7 °F 43.6 °F 29.80 in SW 4.0 mph 9.0 mph 96% 0.00 in
18:19 44.7 °F 43.6 °F 29.80 in SW 5.0 mph 9.0 mph 96% 0.00 in
18:24 44.7 °F 43.6 °F 29.80 in WSW 4.0 mph 9.0 mph 96% 0.00 in
18:29 44.9 °F 43.8 °F 29.80 in SW 5.0 mph 10.0 mph 96% 0.00 in
18:34 44.9 °F 43.8 °F 29.81 in SW 5.0 mph 11.0 mph 96% 0.00 in
18:39 45.1 °F 44.0 °F 29.81 in SW 4.0 mph 11.0 mph 96% 0.00 in
18:44 45.0 °F 43.9 °F 29.81 in SSW 7.0 mph 14.0 mph 96% 0.00 in
18:49 45.1 °F 44.0 °F 29.81 in SSW 5.0 mph 15.0 mph 96% 0.00 in
18:54 45.0 °F 43.9 °F 29.81 in SW 5.0 mph 10.0 mph 96% 0.00 in
18:59 44.8 °F 43.5 °F 29.81 in SSW 4.0 mph 10.0 mph 95% 0.00 in
19:04 44.7 °F 43.6 °F 29.81 in SW 5.0 mph 11.0 mph 96% 0.00 in
19:09 44.5 °F 43.4 °F 29.81 in SW 6.0 mph 15.0 mph 96% 0.00 in
19:14 44.3 °F 43.0 °F 29.81 in SW 8.0 mph 17.0 mph 95% 0.00 in
19:19 44.3 °F 43.0 °F 29.82 in SW 7.0 mph 17.0 mph 95% 0.00 in
19:24 44.3 °F 43.0 °F 29.81 in SW 7.0 mph 17.0 mph 95% 0.00 in
19:29 44.2 °F 42.9 °F 29.82 in SW 8.0 mph 17.0 mph 95% 0.00 in
19:34 44.0 °F 42.9 °F 29.82 in SW 6.0 mph 12.0 mph 96% 0.00 in
19:39 43.9 °F 42.8 °F 29.82 in SSW 5.0 mph 16.0 mph 96% 0.00 in
19:44 43.8 °F 42.7 °F 29.82 in West 4.0 mph 14.0 mph 96% 0.00 in
19:49 43.7 °F 42.4 °F 29.82 in SW 8.0 mph 13.0 mph 95% 0.00 in
19:54 43.6 °F 42.3 °F 29.82 in South 8.0 mph 13.0 mph 95% 0.00 in
19:59 43.4 °F 42.1 °F 29.82 in WSW 8.0 mph 11.0 mph 95% 0.00 in
20:04 43.1 °F 41.8 °F 29.82 in SW 10.0 mph 17.0 mph 95% 0.00 in
20:09 43.0 °F 41.7 °F 29.82 in SW 8.0 mph 17.0 mph 95% 0.00 in
20:14 42.8 °F 41.5 °F 29.82 in SW 8.0 mph 17.0 mph 95% 0.00 in
20:19 42.8 °F 41.5 °F 29.82 in SW 9.0 mph 19.0 mph 95% 0.00 in
20:24 42.7 °F 41.6 °F 29.82 in SW 8.0 mph 19.0 mph 96% 0.00 in
20:29 42.7 °F 41.6 °F 29.82 in WSW 13.0 mph 16.0 mph 96% 0.00 in
20:34 42.6 °F 41.5 °F 29.82 in SW 5.0 mph 20.0 mph 96% 0.00 in
20:39 42.5 °F 41.4 °F 29.82 in SW 8.0 mph 20.0 mph 96% 0.00 in
20:44 42.4 °F 41.1 °F 29.82 in SW 8.0 mph 14.0 mph 95% 0.00 in
20:49 42.2 °F 40.9 °F 29.82 in WSW 8.0 mph 15.0 mph 95% 0.00 in
20:54 42.0 °F 40.7 °F 29.82 in SW 7.0 mph 15.0 mph 95% 0.00 in
20:59 41.8 °F 40.5 °F 29.82 in West 8.0 mph 13.0 mph 95% 0.00 in
21:04 41.6 °F 40.3 °F 29.82 in SW 8.0 mph 12.0 mph 95% 0.00 in
21:09 41.4 °F 40.1 °F 29.82 in SW 11.0 mph 12.0 mph 95% 0.00 in
21:14 41.2 °F 39.9 °F 29.82 in SW 7.0 mph 15.0 mph 95% 0.00 in
21:19 40.9 °F 39.6 °F 29.82 in SW 7.0 mph 15.0 mph 95% 0.00 in
21:24 40.7 °F 39.4 °F 29.82 in WSW 7.0 mph 11.0 mph 95% 0.00 in
21:29 40.6 °F 39.3 °F 29.82 in WSW 7.0 mph 14.0 mph 95% 0.01 in
21:34 40.4 °F 39.1 °F 29.82 in SW 7.0 mph 13.0 mph 95% 0.01 in
21:39 40.3 °F 39.0 °F 29.82 in SW 6.0 mph 13.0 mph 95% 0.01 in
21:44 40.2 °F 38.9 °F 29.82 in SW 6.0 mph 11.0 mph 95% 0.01 in
21:49 40.2 °F 38.9 °F 29.82 in SW 6.0 mph 14.0 mph 95% 0.01 in
21:54 40.1 °F 38.8 °F 29.82 in WSW 7.0 mph 14.0 mph 95% 0.01 in
21:59 39.9 °F 38.6 °F 29.82 in WSW 7.0 mph 14.0 mph 95% 0.01 in
22:04 39.8 °F 38.5 °F 29.82 in WSW 7.0 mph 13.0 mph 95% 0.01 in
22:09 39.7 °F 38.4 °F 29.82 in WSW 4.0 mph 14.0 mph 95% 0.01 in
22:14 39.5 °F 38.2 °F 29.82 in SW 7.0 mph 14.0 mph 95% 0.01 in
22:19 39.3 °F 38.0 °F 29.82 in SW 7.0 mph 16.0 mph 95% 0.01 in
22:24 39.2 °F 37.9 °F 29.83 in WSW 7.0 mph 16.0 mph 95% 0.01 in
22:29 39.1 °F 37.8 °F 29.83 in West 3.0 mph 14.0 mph 95% 0.00 in
22:34 38.9 °F 37.6 °F 29.83 in WSW 5.0 mph 14.0 mph 95% 0.00 in
22:39 38.8 °F 37.5 °F 29.83 in SW 9.0 mph 13.0 mph 95% 0.00 in
22:44 38.7 °F 37.4 °F 29.83 in WSW 4.0 mph 13.0 mph 95% 0.00 in
22:49 38.6 °F 37.3 °F 29.83 in WSW 7.0 mph 13.0 mph 95% 0.00 in
22:54 38.4 °F 37.1 °F 29.83 in WSW 7.0 mph 13.0 mph 95% 0.00 in
22:59 38.4 °F 37.1 °F 29.83 in WSW 6.0 mph 13.0 mph 95% 0.00 in
23:04 38.3 °F 37.0 °F 29.83 in WSW 6.0 mph 13.0 mph 95% 0.00 in
23:09 38.3 °F 37.0 °F 29.83 in SW 6.0 mph 17.0 mph 95% 0.00 in
23:14 38.3 °F 37.0 °F 29.83 in SW 4.0 mph 12.0 mph 95% 0.00 in
23:19 38.2 °F 36.9 °F 29.83 in WSW 6.0 mph 15.0 mph 95% 0.00 in
23:24 38.2 °F 36.9 °F 29.83 in WSW 6.0 mph 15.0 mph 95% 0.00 in
23:29 38.2 °F 36.9 °F 29.83 in WSW 6.0 mph 11.0 mph 95% 0.01 in
23:34 38.2 °F 36.9 °F 29.83 in WSW 6.0 mph 11.0 mph 95% 0.01 in
23:39 38.2 °F 36.9 °F 29.83 in WSW 11.0 mph 13.0 mph 95% 0.01 in
23:44 38.2 °F 36.9 °F 29.83 in SW 5.0 mph 11.0 mph 95% 0.01 in
23:49 38.1 °F 36.8 °F 29.83 in SW 6.0 mph 13.0 mph 95% 0.01 in
23:54 38.1 °F 36.8 °F 29.83 in SSW 5.0 mph 14.0 mph 95% 0.01 in
23:59 38.0 °F 37.0 °F 29.83 in South 5.0 mph 11.0 mph 96% 0.01 in
Buffalo, New York, USA
Compliments of Weather Underground - 2.5 mb